Location: Feigenhofen
(48.4939°N, 10.7793°E)
Time: 08:01:31
(UTC+00:00)

COSMOS 2441 - Visible Passes

Search period start: 06 October 2022 00:00
Search period end: 16 October 2022 00:00
Orbit: 707 x 731 km, 98.2° (Epoch: 05 October)

Date Brightness Start Highest point End Pass type
(mag) Time Alt. Az. Time Alt. Az. Time Alt. Az.
06 Oct 7.4 00:39:59 10° NE 00:40:16 11° NE 00:40:16 11° NE visible
06 Oct 5.7 02:16:52 10° N 02:19:31 32° N 02:19:31 32° N visible
06 Oct 6.4 03:57:29 10° NW 03:58:44 11° NW 03:58:44 11° NW visible
07 Oct 6.6 01:26:50 10° NNE 01:28:40 22° NE 01:28:40 22° NE visible
07 Oct 5.8 03:05:21 10° N 03:07:54 23° NW 03:07:54 23° NW visible
08 Oct 5.9 02:14:41 10° N 02:17:03 29° N 02:17:03 29° N visible
08 Oct 6.4 03:55:06 10° NW 03:56:17 11° NW 03:56:17 11° NW visible
09 Oct 6.8 01:24:40 10° NNE 01:26:13 19° NE 01:26:13 19° NE visible
09 Oct 5.9 03:03:07 10° N 03:05:27 22° NNW 03:05:27 22° NNW visible
10 Oct 6.1 02:12:29 10° N 02:14:36 26° N 02:14:36 26° N visible
10 Oct 6.4 03:52:45 10° NNW 03:53:50 12° NW 03:53:50 12° NW visible
11 Oct 6.9 01:22:30 10° NNE 01:23:45 17° NE 01:23:45 17° NE visible
11 Oct 6.0 03:00:53 10° N 03:02:59 21° NNW 03:02:59 21° NNW visible
12 Oct 6.2 02:10:17 10° N 02:12:09 24° N 02:12:09 24° N visible
12 Oct 6.4 03:50:24 10° NNW 03:51:22 12° NW 03:51:22 12° NW visible
13 Oct 7.0 01:20:20 10° NNE 01:21:18 15° NNE 01:21:18 15° NNE visible
13 Oct 6.1 02:58:40 10° N 03:00:32 20° NNW 03:00:32 20° NNW visible
14 Oct 6.4 02:08:04 10° NNE 02:09:41 21° N 02:09:41 21° N visible
14 Oct 6.5 03:48:04 10° NNW 03:48:55 12° NW 03:48:55 12° NW visible
15 Oct 7.2 01:18:09 10° NNE 01:18:50 14° NNE 01:18:50 14° NNE visible
15 Oct 6.2 02:56:26 10° N 02:58:04 19° NNW 02:58:04 19° NNW visible
